This is the latest recevied weather packets stored in our database for station/object DG0LHZ-10. If no packets are shown the sender has not sent any weather packets the latest 10 day(s).
| Time | Temp. | Humidity | Pressure | Rain* | Wind** | Luminosity | Snow |
|---|---|---|---|---|---|---|---|
| 1777898968 | 31.67° C | 26% | 1014.6 hPa | - | - | - | - |
| 1777898068 | 31.67° C | 27% | 1014.6 hPa | - | - | - | - |
| 1777897168 | 31.67° C | 27% | 1014.6 hPa | - | - | - | - |
| 1777896268 | 31.67° C | 27% | 1014.7 hPa | - | - | - | - |
| 1777895368 | 31.67° C | 27% | 1014.7 hPa | - | - | - | - |
| 1777894468 | 31.11° C | 28% | 1014.8 hPa | - | - | - | - |
| 1777893568 | 30.56° C | 29% | 1014.8 hPa | - | - | - | - |
| 1777892668 | 29.44° C | 29% | 1014.9 hPa | - | - | - | - |
| 1777891768 | 29.44° C | 30% | 1015 hPa | - | - | - | - |
| 1777890868 | 28.89° C | 30% | 1015.3 hPa | - | - | - | - |
| 1777889968 | 27.78° C | 31% | 1015.4 hPa | - | - | - | - |
| 1777889068 | 27.22° C | 32% | 1015.4 hPa | - | - | - | - |
| 1777888167 | 26.67° C | 32% | 1015.5 hPa | - | - | - | - |
| 1777887267 | 25.56° C | 34% | 1015.6 hPa | - | - | - | - |
| 1777886367 | 25° C | 34% | 1015.7 hPa | - | - | - | - |
| 1777885467 | 24.44° C | 35% | 1015.8 hPa | - | - | - | - |
| 1777884569 | 23.33° C | 35% | 1015.8 hPa | - | - | - | - |
| 1777883667 | 22.78° C | 36% | 1015.6 hPa | - | - | - | - |
| 1777882767 | 21.67° C | 36% | 1015.7 hPa | - | - | - | - |
| 1777881867 | 21.11° C | 37% | 1015.6 hPa | - | - | - | - |
| 1777880967 | 20.56° C | 37% | 1015.6 hPa | - | - | - | - |
| 1777880067 | 20.56° C | 37% | 1015.6 hPa | - | - | - | - |
| 1777879167 | 20° C | 37% | 1015.5 hPa | - | - | - | - |
| 1777878267 | 19.44° C | 37% | 1015.3 hPa | - | - | - | - |
| 1777877367 | 18.89° C | 38% | 1015.3 hPa | - | - | - | - |
* Rain since midnight (hover to see other rain measurements)
** Current wind speed in m/s (hover to see current wind gust speed)